Chicopee, MA

4:11 PM EDT on August 28, 2016 (GMT -0400)
Westover Air Reserve Base / Metropolitan Airport

Weather History for KCEF - May, 2014

Change the Weather History Date:

Thursday, May 1, 2014

  Actual Average Record
Temperature  
Mean Temperature 54 °F -  
Max Temperature 68 °F 64 °F 87 °F (2001)
Min Temperature 42 °F 42 °F 24 °F (2008)
Degree Days  
Heating Degree Days 10    
Growing Degree Days 4 (Base 50)    
Moisture  
Dew Point 51 °F    
Average Humidity 98    
Maximum Humidity 100    
Minimum Humidity 80    
Precipitation  
Precipitation 1.44 in - - ()
Sea Level Pressure  
Sea Level Pressure 29.83 in    
Wind  
Wind Speed 7 mph (North)    
Max Wind Speed 13 mph    
Max Gust Speed 29 mph    
Visibility 7 miles    
Events Fog , Rain , Thunderstorm    
Averages and records for this station are not official NWS values.
T = Trace of Precipitation, MM = Missing Value Source: NWS Daily Summary

Daily Weather History Graph

Daily Weather History Graph

Search for Another Location

Airport or City:

Trip Planner

Search our weather history database for the weather conditions in past years. The results will help you decide how hot, cold, wet, or windy it might be!

Date:

Astronomy

May. 01, 2014 Rise Set
Actual Time 5:45 AM EDT 7:49 PM EDT
Civil Twilight 5:15 AM EDT 8:20 PM EDT
Nautical Twilight 4:37 AM EDT 8:57 PM EDT
Astronomical Twilight 3:57 AM EDT 9:38 PM EDT
Moon 7:30 AM EDT (5/1) 10:21 PM EDT (5/1)
Length of Visible Light 15h 04m
Length of Day
14h 03m
Waxing Crescent, 6% of the Moon is Illuminated
May 1
Waxing Crescent
May 6
First Quarter
May 14
Full
May 21
Last Quarter
May 28
New

Hourly Weather History & Observations

Time (EDT) Temp. Windchill Dew Point Humidity Pressure Visibility Wind Dir Wind Speed Gust Speed Precip Events Conditions
12:18 AM 42.8 °F 38.0 °F 42.8 °F 100% 30.10 in 8.0 mi NE 8.1 mph - N/A Rain Light Rain
12:28 AM 42.8 °F 38.0 °F 42.8 °F 100% 30.09 in 6.0 mi NE 8.1 mph - N/A Rain Light Rain
12:42 AM 42.8 °F 38.6 °F 42.8 °F 100% 30.08 in 6.0 mi NE 6.9 mph - N/A Rain Light Rain
12:58 AM 43.3 °F 38.6 °F 43.2 °F 99% 30.09 in 8.0 mi NE 8.1 mph - 0.11 in Rain Light Rain
12:59 AM 42.8 °F 38.6 °F 42.8 °F 100% 30.06 in 8.0 mi NE 6.9 mph - N/A Rain Light Rain
1:04 AM 42.8 °F 38.6 °F 42.8 °F 100% 30.06 in 7.0 mi NE 6.9 mph - N/A Rain Rain
1:09 AM 42.8 °F 39.3 °F 42.8 °F 100% 30.07 in 6.0 mi NNE 5.8 mph - N/A Rain Rain
1:16 AM 42.8 °F 38.6 °F 42.8 °F 100% 30.06 in 4.0 mi NNE 6.9 mph - N/A Rain Rain
1:58 AM 43.5 °F 38.3 °F 43.3 °F 99% 30.06 in 5.0 mi NE 9.2 mph - 0.33 in Rain Rain
2:58 AM 44.4 °F 40.0 °F 44.2 °F 99% 30.01 in 6.0 mi NNE 8.1 mph - 0.24 in Rain Rain
3:58 AM 44.6 °F 40.2 °F 44.2 °F 99% 29.97 in 6.0 mi NE 8.1 mph - 0.12 in Rain Light Rain
4:58 AM 45.0 °F 41.8 °F 45.0 °F 100% 29.91 in 6.0 mi NE 5.8 mph - 0.14 in Rain Light Rain
5:58 AM 45.3 °F 42.3 °F 45.3 °F 100% 29.89 in 10.0 mi NNE 5.8 mph - 0.06 in Rain Light Rain
6:02 AM 44.6 °F 41.4 °F 44.6 °F 100% 29.87 in 10.0 mi NNE 5.8 mph - N/A   Overcast
6:12 AM 46.4 °F 42.9 °F 46.4 °F 100% 29.86 in 10.0 mi Variable 6.9 mph - N/A Rain Light Rain
6:44 AM 44.6 °F 40.2 °F 44.6 °F 100% 29.86 in 10.0 mi North 8.1 mph - N/A   Overcast
6:57 AM 44.6 °F 40.2 °F 44.6 °F 100% 29.85 in 9.0 mi North 8.1 mph - N/A   Overcast
6:58 AM 44.6 °F 40.2 °F 44.6 °F 100% 29.87 in 1.2 mi North 8.1 mph - 0.01 in   Overcast
7:47 AM 44.6 °F 41.4 °F 44.6 °F 100% 29.85 in 1.0 mi NW 5.8 mph - N/A   Overcast
7:58 AM 44.6 °F 41.4 °F 44.6 °F 100% 29.86 in 1.0 mi North 5.8 mph - N/A   Overcast
8:34 AM 44.6 °F 41.4 °F 44.6 °F 100% 29.84 in 1.2 mi North 5.8 mph - N/A   Light Drizzle
8:46 AM 44.6 °F 41.4 °F 44.6 °F 100% 29.82 in 1.0 mi North 5.8 mph - N/A   Overcast
8:58 AM 44.6 °F 40.7 °F 44.6 °F 100% 29.86 in 1.8 mi NNW 6.9 mph - 0.12 in Rain Light Rain
9:51 AM 46.4 °F 44.3 °F 46.4 °F 100% 29.81 in 2.0 mi North 4.6 mph - N/A   Light Drizzle
9:58 AM 46.0 °F 43.9 °F 46.0 °F 100% 29.83 in 2.0 mi North 4.6 mph - 0.00 in   Overcast
10:58 AM 47.7 °F - 47.7 °F 100% 29.82 in 2.0 mi NW 4.6 mph - N/A   Overcast
11:51 AM 48.2 °F - 48.2 °F 100% 29.80 in 4.0 mi West 2.3 mph - N/A   Overcast
11:58 AM 49.1 °F - 49.1 °F 100% 29.81 in 7.0 mi NW 2.3 mph - N/A   Overcast
12:31 PM 50.0 °F - 50.0 °F 100% 29.78 in 7.0 mi NNE 3.5 mph - N/A Rain Light Rain
12:35 PM 50.0 °F - 50.0 °F 100% 29.78 in 7.0 mi North 2.3 mph - N/A   Overcast
12:58 PM 50.7 °F - 50.7 °F 100% 29.79 in 10.0 mi NE 2.3 mph - 0.00 in   Overcast
1:14 PM 53.6 °F - 53.6 °F 100% 29.76 in 10.0 mi Variable 2.3 mph - N/A   Overcast
1:37 PM 55.4 °F - 53.6 °F 94% 29.76 in 10.0 mi Variable 1.2 mph - N/A   Overcast
1:58 PM 55.9 °F - 55.8 °F 99% 29.77 in 10.0 mi South 4.6 mph - 0.01 in   Mostly Cloudy
2:42 PM 57.2 °F - 57.2 °F 100% 29.73 in 10.0 mi South 4.6 mph - N/A   Mostly Cloudy
2:58 PM 59.2 °F - 58.1 °F 96% 29.74 in 10.0 mi SSE 4.6 mph - N/A   Mostly Cloudy
3:58 PM 62.4 °F - 59.4 °F 90% 29.71 in 10.0 mi SSE 6.9 mph - N/A   Partly Cloudy
4:58 PM 66.7 °F - 60.4 °F 80% 29.70 in 10.0 mi SSW 6.9 mph - N/A   Clear
5:58 PM 67.3 °F - 61.0 °F 80% 29.68 in 10.0 mi South 5.8 mph - N/A   Clear
6:58 PM 67.6 °F - 62.2 °F 83% 29.67 in 10.0 mi SSW 8.1 mph - N/A   Clear
7:58 PM 60.4 °F - 60.1 °F 99% 29.68 in 10.0 mi Variable 3.5 mph - N/A   Partly Cloudy
8:19 PM 64.4 °F - 62.6 °F 94% 29.66 in 10.0 mi West 11.5 mph - N/A Thunderstorm Thunderstorm
8:21 PM 64.4 °F - 62.6 °F 94% 29.66 in 10.0 mi West 11.5 mph - N/A Rain , Thunderstorm Light Thunderstorms and Rain
8:22 PM 64.4 °F - 64.4 °F 100% 29.66 in 10.0 mi WNW 12.7 mph - N/A Rain , Thunderstorm Light Thunderstorms and Rain
8:25 PM 64.4 °F - 64.4 °F 100% 29.67 in 1.0 mi WNW 10.4 mph - N/A Rain , Thunderstorm Thunderstorms and Rain
8:35 PM 62.6 °F - 62.6 °F 100% 29.68 in 10.0 mi SW 9.2 mph 28.8 mph N/A Rain , Thunderstorm Light Rain
8:47 PM 60.8 °F - 60.8 °F 100% 29.68 in 8.0 mi WSW 8.1 mph - N/A Rain Light Rain
8:58 PM 61.3 °F - 61.0 °F 99% 29.71 in 10.0 mi WSW 8.1 mph - 0.30 in Rain Light Rain
9:34 PM 59.0 °F - 59.0 °F 100% 29.69 in 10.0 mi Calm Calm - N/A   Scattered Clouds
9:58 PM 57.2 °F - 57.2 °F 100% 29.71 in 10.0 mi South 3.5 mph - N/A Fog Shallow Fog
10:10 PM 57.2 °F - 57.2 °F 100% 29.70 in 3.0 mi NW 1.2 mph - N/A   Scattered Clouds
10:58 PM 56.3 °F - 56.3 °F 100% 29.71 in 10.0 mi North 3.5 mph - N/A   Scattered Clouds
11:58 PM 57.4 °F - 57.0 °F 99% 29.74 in 10.0 mi NNE 4.6 mph - N/A   Overcast
11:59 PM 57.2 °F - 57.2 °F 100% 29.72 in 10.0 mi North 3.5 mph - N/A   Overcast